Tracking 17921 objects as of 16-January-2017
HD Live streaming from Space Station
objects crossing your sky now

PSLV DEB

Track PSLV DEB now!
10-day predictions


NORAD ID: 27114
Int'l Code: 2001-049BJ
Perigee: 336.6 km
Apogee: 343.4 km
Inclination: 97.8 °
Period: 91.2 minutes
Semi major axis: 6711 km
RCS: 0.0473 m2 (small)
Launch date: October 22, 2001
Source: India (IND)
Launch site: SIRHARIKOTA (SRI)

Note: This is SATELLITE DEBRIS
Your satellite tracking list
Your tracking list is empty





NASA's NSSDC Master Catalog

Two Line Element Set (TLE):
1 27114U 01049BJ  17016.16260609  .00086424  00000-0  48227-3 0  9994
2 27114  97.8125  51.2733 0005043  61.2532 298.9239 15.79144573822113
Source of the keplerian elements: AFSPC